Location: Melque
(41.0517°N, 4.4694°W)
Time: 20:51:39
(UTC+00:00)

Meteor 2-20 - Pass Details

Date: 15 March 2026
Orbit: 939 x 958 km, 82.5° (Epoch: 11 April)

Event Time Altitude Azimuth Distance (km) Brightness Sun altitude
Rises 19:15:37 0° 342° (NNW) 3,647 7.9 -10.4°
Reaches altitude 10° 19:18:23 10° 332° (NNW) 2,696 7.3 -11.0°
Maximum altitude 19:23:41 31° 273° (W) 1,609 6.5 -12.0°
Drops below altitude 10° 19:28:57 10° 213° (SSW) 2,674 7.1 -12.9°
Sets 19:31:42 0° 203° (SSW) 3,612 7.7 -13.4°
